User: anonymous   Login
Location: *
(47.7167°N, 1.7333°W)
Time: 13:30:09
(UTC+00:00)
Language:

MOS 1 - Orbit

View from above orbital plane
View from above orbital plane
View from above satellite
View from above satellite

Ground track
Ground track

The orbit data is extracted from the following two-line orbital elements,

1 17527U 87018A   21164.11002753 -.00000265  00000-0 -14247-3 0  9995
2 17527  99.1053 213.6294 0007429 229.2767 184.9020 14.02588056753687
Epoch (UTC): 13 June 2021 02:38:26
Eccentricity: 0.0007429
inclination: 99.1053°
perigee height: 879 km
apogee height: 890 km
right ascension of ascending node: 213.6294°
argument of perigee: 229.2767°
revolutions per day: 14.02588056
mean anomaly at epoch: 184.9020°
orbit number at epoch: 75368

The dashed part of the orbit path shows where the satellite is in the earth's shadow,  

DLR